DECAYED

RESURS P1 DEB, 60226 (Decayed)

Orbit data source: Space-Track

RESURS P1 DEB, 60226 was space debris in LEO originally from a Commonwealth of Independent States-origin launch on Tue, 25 Jun 2013 UTC launched from the Tyuratam Missile And Space Complex (TTMTR). Debris objects in space refer to the collection of defunct objects orbiting the Earth. Examples of debris include non-operational satellites, rocket bodies, and fragments generated from explosions, collisions, or faulty payload assembly.

Not visible in the next 10 days
Identifier
60226, 2013-030Q
Orbit
Decayed
Country
Flag of CISCIS
Related business
Manufacturer
TSSKBP?
Mission
Decayed spacecraft
Bus & Motor
Unknown
Mass
Unknown
Launch date (UTC)
2013-06-25 (12 years ago)
Launch vehicle
Unknown
Launch site
Tyuratam Missile And Space Complex (TTMTR)
Object type
Payload
Rocket body
Debris
Shape & HBR
Unknown
Radar Cross Section
Large (>1 m²)

Expand to show TLE details & history
Last TLE update: 1 year ago

TLE from 1 year ago
0 RESURS P1 DEB
1 60226U 13030Q   24189.41106529  .19092115  22526-5  34581-2 0  9998
2 60226  96.9797 239.7526 0015738 274.9802  84.9697 16.32122412  1430
Epoch: 2024-07-07T09:51Z
TLE epoch observation values (Epoch: 2024-07-07T09:51:56.041Z)
Latitude
-0.00007°
Longitude
165.9096°
Altitude
189.205 km
Speed
7.793 km/s
True Right ascension
15h 59m 00s
True Declination
0° 00' 00"
Sunlit
Object was in full shadow at epoch
Visualization orbit readout
Latitude
Unknown
Longitude
Unknown
Altitude
Unknown
Speed
Unknown
Apparent Right ascension
Unknown
Apparent Declination
Unknown
Sunlit
N/A
Visualization observer readout
Local Sidereal Time
00:04:25
Azimuth
Unknown
Elevation
Unknown
Doppler factor
Unknown
Orbital elements
Apogee altitude
193.969 km
Perigee altitude
173.315 km
Semi-major axis
6,561.779 km
Eccentricity
0.00157
Inclination
96.9797°
RAAN
239.7526°
Arg. of periapsis
274.9802°
True anomaly
85.14938°
Mean anomaly
84.9697°
Eccentric anomaly
85.05954°
Mean motion
4.0833 °/min
Orbital period
88.16 mins
BSTAR
0.0034581
Loading maneuver chart data...
Computing Atmospheric mass density...

Documentation

Showing up to 5 results
|